Home > Weather > Daytona Beach > Past weeks

Flag for USA Past Weather in Daytona Beach, Florida, USA — Yesterday and Last 2 Weeks

Now
76 °F

Mostly cloudy.


Feels Like: 76 °F
Forecast: 76 / 91 °F
Wind: No wind

Location: Daytona Beach Regional Airport

Current Time: Jun 29, 2016 at 1:30:42 AM

Latest Report: Jun 29, 2016 at 12:53 AM


Visibility: 10 mi

Pressure: 29.99 "Hg

Humidity: 91%

Dew Point: 73 °F

Location of Daytona BeachLocation

Past Weather in Daytona Beach — Graph

°F

Daytona Beach Temperature Yesterday

Maximum temperature yesterday: 90 °F (at 12:53 PM)
Minimum temperature yesterday: 75 °F (at 2:53 AM)
Average temperature yesterday: 81 °F

High & Low Weather Summary for the Past Weeks

 TemperatureHumidityPressure
High94 °F (Jun 14, 1:53 PM)100% (Jun 14, 5:53 AM)30.24 "Hg (Jun 14, 5:53 AM)
Low65 °F (Jun 21, 4:53 AM)43% (Jun 23, 1:53 PM)29.83 "Hg (Jun 17, 6:53 PM)
Average81 °F77%30.05 "Hg
* Reported Jun 13 11:53 PM — Jun 28 11:53 PM, Daytona Beach, Weather by CustomWeather, © 2016

Note: Actual official high and low records may vary slightly from our data, if they occured in-between our weather recording intervals... More about our weather records

Advertising

Daytona Beach Weather History for the Previous 24 Hours

Scroll right to see more
 ConditionsComfort  
Time TempWeatherWind HumidityBarometerVisibility
11:53 PM
Tue, Jun 28
76 °FPassing clouds.No wind91%29.98 "Hg10 mi
10:53 PM76 °FPartly cloudy.No wind91%29.99 "Hg10 mi
9:53 PM77 °FPartly cloudy.5 mph85%29.97 "Hg10 mi
8:53 PM79 °FPartly sunny.5 mph79%29.96 "Hg10 mi
7:53 PM81 °FBroken clouds.3 mph77%29.94 "Hg10 mi
6:53 PM82 °FBroken clouds.3 mph77%29.93 "Hg10 mi
5:53 PM84 °FThunderstorms. Partly sunny.6 mph72%29.93 "Hg10 mi
4:53 PM85 °FBroken clouds.6 mph77%29.93 "Hg10 mi
3:53 PM87 °FThunderstorms. Scattered clouds.7 mph63%29.94 "Hg10 mi
2:53 PM90 °FScattered clouds.10 mph61%29.97 "Hg10 mi
1:53 PM90 °FScattered clouds.10 mph61%29.99 "Hg10 mi
12:53 PM90 °FScattered clouds.8 mph61%30.00 "Hg10 mi
11:53 AM89 °FScattered clouds.7 mph61%30.01 "Hg10 mi
10:53 AM86 °FPassing clouds.7 mph67%30.02 "Hg10 mi
9:53 AM83 °FScattered clouds.8 mph74%30.02 "Hg10 mi
8:53 AM81 °FScattered clouds.7 mph82%30.01 "Hg10 mi
7:53 AM78 °FOvercast.5 mph90%30.01 "Hg9 mi
6:53 AM75 °FOvercast.No wind96%29.99 "Hg8 mi
5:53 AM75 °FPassing clouds.3 mph94%29.99 "Hg9 mi
4:53 AM76 °FPassing clouds.5 mph94%29.98 "Hg9 mi
3:53 AM76 °FPassing clouds.3 mph94%29.98 "Hg8 mi
2:53 AM75 °FPassing clouds.No wind96%30.00 "Hg9 mi
1:53 AM76 °FPassing clouds.No wind94%30.01 "Hg9 mi
Weather by CustomWeather, © 2016

See weather overviewHow to use our weather pages